Meteo pe oră la Bolshie Yakentany

Astăzi, 6 Mai, Joi

Timp Temperatura Precipitaţii Vânt Presiune Umiditate
00:00 +7°C° 0.5 mm 2 m/s 735 mmHg 96%
01:00 +7°C° 0.5 mm 2 m/s 734 mmHg 94%
02:00 +7°C° 0 mm 2 m/s 734 mmHg 94%
03:00 +7°C° 0.5 mm 2 m/s 734 mmHg 93%
04:00 +7°C° 0.5 mm 3 m/s 734 mmHg 92%
05:00 +5°C° 0.5 mm 3 m/s 734 mmHg 91%
06:00 +6°C° 0.1 mm 4 m/s 734 mmHg 89%
07:00 +6°C° 0.1 mm 5 m/s 735 mmHg 87%
08:00 +5°C° 0.1 mm 6 m/s 735 mmHg 84%
09:00 +5°C° 0.3 mm 6 m/s 736 mmHg 86%
10:00 +5°C° 0.3 mm 6 m/s 736 mmHg 87%
11:00 +4°C° 0.3 mm 7 m/s 737 mmHg 88%
12:00 +5°C° 0.3 mm 7 m/s 737 mmHg 84%
13:00 +5°C° 0.3 mm 7 m/s 737 mmHg 80%
14:00 +6°C° 0.3 mm 7 m/s 738 mmHg 77%
15:00 +6°C° 0.2 mm 7 m/s 738 mmHg 73%
16:00 +6°C° 0.2 mm 7 m/s 738 mmHg 70%
17:00 +6°C° 0.2 mm 7 m/s 738 mmHg 67%
18:00 +5°C° 0.1 mm 6 m/s 739 mmHg 71%
19:00 +5°C° 0.1 mm 5 m/s 739 mmHg 76%
20:00 +4°C° 0.1 mm 3 m/s 739 mmHg 80%
21:00 +4°C° 0 mm 3 m/s 739 mmHg 81%
22:00 +3°C° 0 mm 4 m/s 740 mmHg 82%
23:00 +3°C° 0 mm 4 m/s 740 mmHg 83%

Mâine, 7 Mai, Vineri

Timp Temperatura Precipitaţii Vânt Presiune Umiditate
00:00 +3°C° 0.3 mm 4 m/s 740 mmHg 86%
01:00 +3°C° 0.3 mm 4 m/s 740 mmHg 90%
02:00 +3°C° 0.3 mm 4 m/s 740 mmHg 93%
03:00 +3°C° 0.2 mm 4 m/s 740 mmHg 94%
04:00 +3°C° 0.2 mm 3 m/s 740 mmHg 94%
05:00 +3°C° 0.2 mm 3 m/s 740 mmHg 95%
06:00 +4°C° 0 mm 3 m/s 740 mmHg 91%
07:00 +5°C° 0 mm 3 m/s 740 mmHg 86%
08:00 +7°C° 0 mm 3 m/s 740 mmHg 81%
09:00 +8°C° 0 mm 3 m/s 740 mmHg 74%
10:00 +9°C° 0 mm 3 m/s 740 mmHg 67%
11:00 +10°C° 0 mm 3 m/s 740 mmHg 60%
12:00 +9°C° 0.4 mm 3 m/s 740 mmHg 69%
13:00 +8°C° 0.4 mm 3 m/s 740 mmHg 77%
14:00 +7°C° 0.4 mm 2 m/s 739 mmHg 86%
15:00 +7°C° 0.7 mm 2 m/s 739 mmHg 89%
16:00 +7°C° 0.7 mm 2 m/s 738 mmHg 93%
17:00 +6°C° 0.7 mm 2 m/s 738 mmHg 96%
18:00 +6°C° 0.8 mm 2 m/s 737 mmHg 97%
19:00 +6°C° 0.8 mm 2 m/s 737 mmHg 97%
20:00 +7°C° 0.8 mm 2 m/s 737 mmHg 97%
21:00 +6°C° 0.3 mm 2 m/s 736 mmHg 97%
22:00 +6°C° 0.3 mm 2 m/s 736 mmHg 97%
23:00 +6°C° 0.3 mm 2 m/s 736 mmHg 97%

Poimâine, 8 Mai, Sâmbătă

Timp Temperatura Precipitaţii Vânt Presiune Umiditate
00:00 +5°C° 0.3 mm 3 m/s 736 mmHg 97%
01:00 +4°C° 0.3 mm 3 m/s 736 mmHg 97%
02:00 +4°C° 0.3 mm 3 m/s 736 mmHg 97%
03:00 +3°C° 1.6 mm 4 m/s 736 mmHg 97%
04:00 +3°C° 1.6 mm 4 m/s 737 mmHg 97%
05:00 +1°C° 1.6 mm 5 m/s 737 mmHg 97%
06:00 +1°C° 1.7 mm 5 m/s 738 mmHg 97%
07:00 -1°C° 1.7 mm 6 m/s 739 mmHg 96%
08:00 -1°C° 1.7 mm 7 m/s 740 mmHg 95%
09:00 0°C° 0.1 mm 7 m/s 740 mmHg 89%
10:00 +2°C° 0.1 mm 7 m/s 741 mmHg 83%
11:00 +3°C° 0.1 mm 7 m/s 742 mmHg 77%
12:00 +4°C° 0.1 mm 7 m/s 742 mmHg 71%
13:00 +5°C° 0.1 mm 7 m/s 743 mmHg 66%
14:00 +6°C° 0.1 mm 8 m/s 743 mmHg 60%
15:00 +6°C° 0.2 mm 7 m/s 743 mmHg 65%
16:00 +6°C° 0.2 mm 7 m/s 744 mmHg 70%
17:00 +7°C° 0.2 mm 6 m/s 744 mmHg 76%
18:00 +6°C° 0.1 mm 5 m/s 745 mmHg 79%
19:00 +5°C° 0.1 mm 5 m/s 745 mmHg 82%
20:00 +3°C° 0.1 mm 4 m/s 745 mmHg 86%
21:00 +3°C° 0 mm 3 m/s 746 mmHg 88%
22:00 +2°C° 0 mm 3 m/s 747 mmHg 91%
23:00 +1°C° 0 mm 3 m/s 747 mmHg 93%

9 Mai, Duminică

Timp Temperatura Precipitaţii Vânt Presiune Umiditate
00:00 +2°C° 0 mm 2 m/s 748 mmHg 94%
01:00 +1°C° 0 mm 2 m/s 748 mmHg 95%
02:00 +1°C° 0 mm 2 m/s 749 mmHg 95%
03:00 +1°C° 0 mm 2 m/s 749 mmHg 96%
04:00 +1°C° 0 mm 2 m/s 749 mmHg 96%
05:00 +1°C° 0 mm 2 m/s 750 mmHg 97%
06:00 +2°C° 0 mm 2 m/s 750 mmHg 91%
07:00 +3°C° 0 mm 3 m/s 751 mmHg 85%
08:00 +5°C° 0 mm 3 m/s 751 mmHg 80%
09:00 +7°C° 0 mm 3 m/s 751 mmHg 71%
10:00 +9°C° 0 mm 3 m/s 751 mmHg 63%
11:00 +10°C° 0 mm 3 m/s 752 mmHg 54%
12:00 +11°C° 0 mm 4 m/s 751 mmHg 51%
13:00 +11°C° 0 mm 4 m/s 751 mmHg 49%
14:00 +12°C° 0 mm 4 m/s 751 mmHg 46%
15:00 +12°C° 0 mm 4 m/s 751 mmHg 49%
16:00 +12°C° 0 mm 4 m/s 751 mmHg 52%
17:00 +12°C° 0 mm 4 m/s 751 mmHg 56%
18:00 +11°C° 0 mm 3 m/s 751 mmHg 61%
19:00 +10°C° 0 mm 3 m/s 751 mmHg 67%
20:00 +8°C° 0 mm 3 m/s 751 mmHg 73%
21:00 +8°C° 0 mm 3 m/s 751 mmHg 72%
22:00 +8°C° 0 mm 3 m/s 752 mmHg 71%
23:00 +7°C° 0 mm 4 m/s 752 mmHg 71%

10 Mai, Luni

Timp Temperatura Precipitaţii Vânt Presiune Umiditate
00:00 +7°C° 0 mm 4 m/s 752 mmHg 71%
01:00 +6°C° 0 mm 4 m/s 752 mmHg 71%
02:00 +6°C° 0 mm 4 m/s 752 mmHg 71%
03:00 +6°C° 0 mm 4 m/s 752 mmHg 73%
04:00 +6°C° 0 mm 4 m/s 752 mmHg 75%
05:00 +5°C° 0 mm 4 m/s 752 mmHg 77%
06:00 +7°C° 0 mm 4 m/s 753 mmHg 74%
07:00 +8°C° 0 mm 5 m/s 753 mmHg 71%
08:00 +10°C° 0 mm 5 m/s 753 mmHg 68%
09:00 +13°C° 0 mm 5 m/s 753 mmHg 64%
10:00 +14°C° 0 mm 6 m/s 753 mmHg 59%
11:00 +16°C° 0 mm 6 m/s 753 mmHg 55%
12:00 +17°C° 0 mm 6 m/s 753 mmHg 54%
13:00 +17°C° 0 mm 6 m/s 753 mmHg 52%
14:00 +19°C° 0 mm 6 m/s 753 mmHg 51%
15:00 +19°C° 0 mm 6 m/s 752 mmHg 53%
16:00 +19°C° 0 mm 6 m/s 752 mmHg 56%
17:00 +17°C° 0 mm 5 m/s 752 mmHg 59%
18:00 +16°C° 0 mm 5 m/s 752 mmHg 64%
19:00 +14°C° 0 mm 5 m/s 752 mmHg 69%
20:00 +13°C° 0 mm 4 m/s 752 mmHg 74%
21:00 +12°C° 0 mm 4 m/s 752 mmHg 77%
22:00 +11°C° 0 mm 4 m/s 752 mmHg 80%
23:00 +10°C° 0 mm 3 m/s 752 mmHg 82%

11 Mai, Marţi

Timp Temperatura Precipitaţii Vânt Presiune Umiditate
00:00 +10°C° 0 mm 3 m/s 752 mmHg 81%
01:00 +8°C° 0 mm 4 m/s 752 mmHg 80%
02:00 +8°C° 0 mm 4 m/s 752 mmHg 79%
03:00 +8°C° 0 mm 4 m/s 752 mmHg 80%
04:00 +8°C° 0 mm 4 m/s 752 mmHg 80%
05:00 +8°C° 0 mm 4 m/s 752 mmHg 81%
06:00 +9°C° 0 mm 5 m/s 752 mmHg 76%
07:00 +10°C° 0 mm 5 m/s 752 mmHg 72%
08:00 +13°C° 0 mm 6 m/s 752 mmHg 67%
09:00 +14°C° 0 mm 6 m/s 752 mmHg 62%
10:00 +15°C° 0 mm 6 m/s 752 mmHg 57%
11:00 +17°C° 0 mm 6 m/s 752 mmHg 52%
12:00 +17°C° 0 mm 6 m/s 751 mmHg 50%
13:00 +18°C° 0 mm 7 m/s 751 mmHg 48%
14:00 +18°C° 0 mm 7 m/s 751 mmHg 46%
15:00 +19°C° 0 mm 6 m/s 751 mmHg 49%
16:00 +19°C° 0 mm 6 m/s 750 mmHg 52%
17:00 +19°C° 0 mm 6 m/s 750 mmHg 55%
18:00 +16°C° 0 mm 5 m/s 750 mmHg 61%
19:00 +15°C° 0 mm 4 m/s 750 mmHg 68%
20:00 +13°C° 0 mm 4 m/s 750 mmHg 75%
21:00 +13°C° 0 mm 4 m/s 750 mmHg 78%
22:00 +13°C° 0 mm 4 m/s 750 mmHg 80%
23:00 +13°C° 0 mm 4 m/s 750 mmHg 83%
Arată mai mult

Formular de consimțământ

Meteoprog și furnizorii noștri de servicii pot stoca și accesa date personale, precum cookies, identificatori de dispozitiv sau alte tehnologii similare pe dispozitivul dumneavoastră și procesa astfel de date pentru a personaliza conținutul și reclamele, dar și pentru a oferi caracteristici de social media și pentru a analiza traficul.

  • Stocarea și/sau accesarea informațiilor pe dispozitivul dumneavoastră

    Cookies, identificatori de dispozitiv sau alte informații pot fi stocate sau accesate pe dispozitiv în scopurile indicate mai sus.

  • Reclame și conținut personalizat, evaluarea reclamelor și a conținutului, informații despre audiențe și dezvoltarea produselor

    Reclamele și conținutul pot fi personalizate pe baza unui profil. Pot fi adăugate date suplimentare pentru a personaliza mai bine reclamele și conținutul. Performanța reclamelor și conținutului poate fi măsurată. Pot fi obținute informații despre utilizatorii care au văzut reclamele și conținutul. Aceste date pot fi utilizate pentru a dezvolta sau îmbunătăți experiența utilizatorilor, sistemele și software-ul.

Dând clic pe ‘Sunt de acord’, permiteți utilizarea cookie-urilor menționate, a identificatorilor de dispozitiv, balizelor web sau altor tehnologii similare. Setările pot fi modificate din browser-ul dispozitivului dumneavoastră.

În anumite scopuri, interesele legitime pot prima asupra consimțământului. Puteți citi mai multe informații în acest sens în Politica privind Confidențialitatea Datelor și Cookie.